Location: Easter Hill Village
(37.9235°N, 122.3444°W)
Time: 21:08:55
(UTC+00:00)

H-2A R/B - Pass Details

Date: 16 September 2019
Orbit: 529 x 654 km, 98.3° (Epoch: 20 October)

Event Time Altitude Azimuth Distance (km) Brightness Sun altitude
Rises 12:26:24 0° 6° (N) 2,689 6.2 -17.4°
Reaches altitude 10° 12:28:33 10° 1° (N) 1,787 5.2 -17.0°
Maximum altitude 12:32:16 49° 287° (WNW) 687 2.4 -16.3°
Enters shadow 12:33:55 28° 227° (SW) 1,005 3.1 -15.9°
